Location: Newark
(44.6768°N, 22.5302°E)
Time: 21:17:05
(UTC+00:00)

UKube-1 - Pass Details

Date: 11 July 2022
Orbit: 608 x 615 km, 98.4° (Epoch: 11 August)

Event Time Altitude Azimuth Distance (km) Brightness Sun altitude
Rises 21:23:32 0° 4° (N) 2,890 ? -21.3°
Reaches altitude 10° 21:25:55 10° 353° (N) 1,978 ? -21.4°
Maximum altitude 21:29:39 30° 293° (WNW) 1,109 ? -21.6°
Enters shadow 21:32:14 17° 242° (WSW) 1,581 ? -21.8°
